Location: Boiro
(42.6475°N, 8.8834°W)
Time: 18:51:49
(UTC+01:00)

Explorer 7 - Pass Details

Date: 02 December 2021
Orbit: 483 x 674 km, 50.3° (Epoch: 20 January)

Event Time Altitude Azimuth Distance (km) Brightness Sun altitude
Rises 14:25:20 0° 294° (WNW) 2,581 10.2 23.8°
Reaches altitude 10° 14:27:43 10° 284° (WNW) 1,679 9.4 23.7°
Maximum altitude 14:31:02 30° 222° (SW) 898 9.4 23.6°
Drops below altitude 10° 14:34:19 10° 160° (SSE) 1,654 10.2 23.4°
Sets 14:36:38 0° 149° (SSE) 2,535 10.8 23.2°
